Location: La Pernelle
(49.6188°N, 1.2999°W)
Time: 17:58:23
(UTC+00:00)

SL-16 R/B - Pass Details

Date: 23 October 2021
Orbit: 842 x 846 km, 71.0° (Epoch: 28 November)

Event Time Altitude Azimuth Distance (km) Brightness Sun altitude
Exits shadow 05:01:10 27° 270° (W) 1,594 3.0 -16.5°
Maximum altitude 05:01:55 27° 256° (WSW) 1,563 3.0 -16.4°
Drops below altitude 10° 05:06:35 10° 200° (SSW) 2,463 4.4 -15.7°
Sets 05:09:20 0° 189° (S) 3,393 5.3 -15.2°
